Content
SEND FEEDBACK

Daily
Averages
Monthly
Summary
United States of America

GRIER, NEW MEXICO


Home > North America > United States > New Mexico
Elevation: 4252 feet     Latitude: 34 24N     Longitude: 103 12W

WEATHER
 
SELECT A DAY
Number of Records: 447,916;   Date Range: 1/1/95 - 7/23/14
 
SHARE

PRINT THIS DATA

[ ← Previous Day ]
WEATHER ALMANAC - FEBRUARY 13, 2013
[ Next Day → ]
[ °C ]   °F
Weather ElementAverageHighLow
Temperature36.1 °F55.4 °F (3:15 pm)21.2 °F (3:55 am)
Dewpoint18.2 °F23 °F (9:35 am)12.2 °F (6:15 am)
Humidity52.7 %86 % (4:15 am)23 % (3:15 pm)
Barometer30.01 in30.08 in (12:35 am)29.93 in (4:15 pm)
Wind Speed9.7 mph18.4 mph (1:35 pm)
Wind Gust26.5 mph (3:15 pm)
Weather ElementAverage
Visibility10 mi
Wind DirectionWSW (246.1 °)

Weather ElementTotal
Precipitation---
Heating Degree Days26.7 (Base 65)
Averaged from 70 records on February 13, 2013
WEATHER CONDITIONS BREAKOUT
WIND DIRECTION BREAKOUT
WEATHER BY HOUR - FEBRUARY 13, 2013
[ °C ]   °F
Local TimeTemperatureDewpointHumidityBarometerVisibilityWind DirectionWind SpeedGust SpeedPrecipitationEventsConditions
12:35 AM24.8 °F17.6 °F74 %30.08 in10.0 miWest (280°)9.2 mphClear
12:55 AM24.8 °F17.6 °F74 %30.08 in10.0 miWest (270°)9.2 mphClear
1:15 AM23.0 °F15.8 °F74 %30.08 in10.0 miWest (270°)8.1 mphClear
1:35 AM23.0 °F15.8 °F74 %30.08 in10.0 miWest (270°)8.1 mphClear
1:55 AM23.0 °F17.6 °F80 %30.08 in10.0 miWest (260°)8.1 mphClear
2:15 AM26.6 °F19.4 °F74 %30.07 in10.0 miWSW (250°)9.2 mphClear
2:35 AM26.6 °F19.4 °F74 %30.06 in10.0 miWSW (250°)9.2 mphClear
2:55 AM24.8 °F17.6 °F74 %30.06 in10.0 miWSW (250°)8.1 mphClear
3:15 AM24.8 °F17.6 °F74 %30.05 in10.0 miWest (260°)8.1 mphClear
3:35 AM23.0 °F17.6 °F80 %30.05 in10.0 miWest (260°)6.9 mphClear
3:55 AM21.2 °F15.8 °F80 %30.04 in10.0 miWSW (250°)8.1 mphClear
4:15 AM21.2 °F17.6 °F86 %30.04 in10.0 miWest (280°)6.9 mphClear
4:35 AM21.2 °F15.8 °F80 %30.04 in10.0 miWNW (300°)8.1 mphClear
5:15 AM21.2 °F14.0 °F74 %30.03 in10.0 miWest (270°)10.4 mphClear
5:35 AM21.2 °F15.8 °F80 %30.04 in10.0 miWest (270°)10.4 mphClear
5:55 AM21.2 °F15.8 °F80 %30.05 in10.0 miWest (280°)9.2 mphClear
6:15 AM21.2 °F12.2 °F68 %30.05 in10.0 miWest (280°)11.5 mphClear
6:35 AM21.2 °F14.0 °F74 %30.05 in10.0 miWest (280°)13.8 mphClear
6:55 AM21.2 °F14.0 °F74 %30.05 in10.0 miWest (280°)10.4 mphClear
7:15 AM21.2 °F14.0 °F74 %30.05 in10.0 miWest (280°)10.4 mphClear
7:35 AM24.8 °F15.8 °F69 %30.06 in10.0 miWNW (290°)10.4 mphClear
7:55 AM26.6 °F17.6 °F69 %30.06 in10.0 miWNW (290°)11.5 mphClear
8:15 AM28.4 °F19.4 °F69 %30.07 in10.0 miWNW (300°)9.2 mphClear
8:35 AM32.0 °F21.2 °F64 %30.07 in10.0 miWNW (290°)8.1 mphClear
8:55 AM33.8 °F21.2 °F60 %30.07 in10.0 miWest (280°)11.5 mphClear
9:15 AM37.4 °F21.2 °F52 %30.07 in10.0 miWNW (290°)12.7 mphClear
9:35 AM37.4 °F23.0 °F56 %30.06 in10.0 miWNW (290°)9.2 mphClear
9:55 AM39.2 °F19.4 °F45 %30.06 in10.0 miWSW (240°)6.9 mphClear
10:15 AM42.8 °F21.2 °F42 %30.06 in10.0 miWSW (250°)9.2 mphClear
10:35 AM42.8 °F21.2 °F42 %30.05 in10.0 miSW (230°)10.4 mphClear
10:55 AM44.6 °F21.2 °F39 %30.04 in10.0 miSW (230°)11.5 mphClear
11:15 AM44.6 °F21.2 °F39 %30.04 in10.0 miSW (230°)11.5 mphClear
11:35 AM46.4 °F21.2 °F37 %30.03 in10.0 miSW (220°)11.5 mphClear
11:55 AM46.4 °F23.0 °F40 %30.03 in10.0 miSW (230°)15.0 mphClear
12:15 PM46.4 °F21.2 °F37 %30.01 in10.0 miSW (230°)17.3 mph23.0 mphClear
12:35 PM48.2 °F21.2 °F34 %30.01 in10.0 miWSW (240°)15.0 mph20.7 mphClear
12:55 PM50.0 °F21.2 °F32 %29.99 in10.0 miSW (230°)17.3 mph20.7 mphClear
1:15 PM50.0 °F19.4 °F30 %29.98 in10.0 miSW (230°)17.3 mphClear
1:35 PM50.0 °F19.4 °F30 %29.98 in10.0 miWSW (250°)18.4 mph23.0 mphClear
1:55 PM51.8 °F19.4 °F28 %29.97 in10.0 miWSW (250°)15.0 mph19.6 mphClear
2:15 PM51.8 °F19.4 °F28 %29.96 in10.0 miWSW (240°)17.3 mph20.7 mphClear
2:35 PM53.6 °F19.4 °F26 %29.95 in10.0 miWSW (240°)17.3 mph25.3 mphClear
2:55 PM53.6 °F17.6 °F24 %29.94 in10.0 miWest (270°)17.3 mph25.3 mphClear
3:15 PM55.4 °F17.6 °F23 %29.94 in10.0 miWSW (250°)17.3 mph26.5 mphClear
3:35 PM55.4 °F17.6 °F23 %29.94 in10.0 miSW (220°)16.1 mph26.5 mphClear
3:55 PM55.4 °F17.6 °F23 %29.94 in10.0 miWSW (240°)17.3 mph21.9 mphClear
4:15 PM55.4 °F17.6 °F23 %29.93 in10.0 miSW (230°)12.7 mph21.9 mphClear
4:35 PM53.6 °F17.6 °F24 %29.93 in10.0 miSSW (210°)13.8 mphClear
4:55 PM51.8 °F17.6 °F26 %29.93 in10.0 miSSW (210°)10.4 mphClear
5:15 PM50.0 °F19.4 °F30 %29.93 in10.0 miSSW (200°)9.2 mphClear
5:35 PM46.4 °F19.4 °F34 %29.94 in10.0 miSSW (200°)9.2 mphClear
5:55 PM44.6 °F19.4 °F37 %29.94 in10.0 miSSW (210°)5.8 mphClear
6:15 PM42.8 °F19.4 °F39 %29.94 in10.0 miSSW (200°)8.1 mphClear
6:35 PM39.2 °F19.4 °F45 %29.95 in10.0 miSW (220°)5.8 mphClear
6:55 PM39.2 °F19.4 °F45 %29.96 in10.0 miSW (220°)5.8 mphClear
7:15 PM39.2 °F19.4 °F45 %29.96 in10.0 miCalmClear
7:35 PM37.4 °F19.4 °F48 %29.97 in10.0 miCalmClear
7:55 PM33.8 °F19.4 °F56 %29.98 in10.0 miCalmClear
8:15 PM35.6 °F19.4 °F52 %29.97 in10.0 miWest (270°)3.5 mphClear
8:35 PM35.6 °F19.4 °F52 %29.98 in10.0 miWSW (240°)6.9 mphClear
8:55 PM35.6 °F17.6 °F48 %29.98 in10.0 miWNW (290°)3.5 mphClear
9:15 PM35.6 °F17.6 °F48 %29.98 in10.0 miNW (310°)4.6 mphClear
9:35 PM33.8 °F15.8 °F48 %29.99 in10.0 miWest (270°)4.6 mphClear
9:55 PM33.8 °F15.8 °F48 %29.99 in10.0 miWNW (300°)4.6 mphClear
10:15 PM30.2 °F15.8 °F55 %29.98 in10.0 miWSW (250°)8.1 mphClear
10:35 PM30.2 °F17.6 °F60 %29.98 in10.0 miWSW (240°)6.9 mphClear
10:55 PM30.2 °F17.6 °F60 %29.99 in10.0 miNNW (330°)5.8 mphClear
11:15 PM30.2 °F17.6 °F60 %29.99 in10.0 miSW (230°)3.5 mphClear
11:35 PM28.4 °F15.8 °F59 %29.98 in10.0 miNorth (350°)4.6 mphClear
11:55 PM26.6 °F15.8 °F64 %29.99 in10.0 miNW (310°)3.5 mphClear
Hourly data recorded from KCVN, located miles away from Grier, New Mexico







STORIES FROM OUR PARTNERS